Location: Dresden
(51.0483°N, 13.7137°E)
Time: 13:47:28
(UTC+01:00)

Envisat - Visible Passes

Search period start: 22 November 2017 00:00
Search period end: 02 December 2017 00:00
Orbit: 764 x 766 km, 98.2° (Epoch: 22 November)

Date Brightness Start Highest point End Pass type
(mag) Time Alt. Az. Time Alt. Az. Time Alt. Az.
22 Nov 4.8 17:58:42 14° NNE 17:58:42 14° NNE 17:59:59 10° NNE visible
22 Nov 5.1 19:38:55 19° NNW 19:38:55 19° NNW 19:40:15 10° NNW visible
23 Nov 4.8 19:01:51 19° N 19:01:51 19° N 19:03:21 10° N visible
23 Nov 5.9 20:42:03 11° NNW 20:42:03 11° NNW 20:42:11 10° NNW visible
24 Nov 4.8 18:24:47 16° NNE 18:24:47 16° NNE 18:26:11 10° N visible
24 Nov 5.4 20:04:59 15° NNW 20:04:59 15° NNW 20:05:49 10° NNW visible
25 Nov 5.0 17:47:42 12° NNE 17:47:42 12° NNE 17:48:29 10° NNE visible
25 Nov 5.1 19:27:55 17° N 19:27:55 17° N 19:29:07 10° N visible
26 Nov 4.9 18:50:50 17° N 18:50:50 17° N 18:52:08 10° N visible
26 Nov 5.8 20:31:03 11° NNW 20:31:03 11° NNW 20:31:13 10° NNW visible
27 Nov 4.9 18:13:45 14° NNE 18:13:45 14° NNE 18:14:51 10° N visible
27 Nov 5.4 19:53:58 14° NNW 19:53:58 14° NNW 19:54:44 10° NNW visible
28 Nov 5.1 17:36:40 10° NNE 17:36:40 10° NNE 17:36:49 10° NNE visible
28 Nov 5.1 19:16:52 16° N 19:16:52 16° N 19:17:57 10° N visible
29 Nov 4.9 18:39:47 16° N 18:39:47 16° N 18:40:53 10° N visible
29 Nov 5.8 20:20:00 11° NNW 20:20:00 11° NNW 20:20:12 10° NNW visible
30 Nov 5.0 18:02:42 13° NNE 18:02:42 13° NNE 18:03:28 10° NNE visible
30 Nov 5.4 19:42:55 14° NNW 19:42:55 14° NNW 19:43:37 10° NNW visible
01 Dec 5.1 19:05:48 15° N 19:05:48 15° N 19:06:45 10° N visible
